[[{"header":{"parameterUnit":"m.s-1","parameterCategory":2,"la1":30.2991,"la2":30.254,"lo1":-89.0895,"lo2":-89.0444,"dy":0.0017,"dx":0.0017,"nx":28,"ny":28,"refTime":"2025-02-03T03:00:00:Z","depth":"0","parameterNumber":2,"parameterNumberName":"U-component_of_CURRENTS"},"data":[0,0,0,0,0,0,0,0,0,0,0,0,0,0,0,0,0,0,0,0,0,0,0,0,0,0,0,0,0,0,0,0,0,0,0,0,0,0,0,0,0,0,0,0,0,0,0,0,0,0,0,0,0,0,0,0,0,0,-0.347,-0.3469,0,-0.3321,-0.3319,-0.3317,-0.3153,-0.3151,-0.315,-0.3148,-0.293,-0.2926,-0.2922,0,0,0,0,0,0,0,0,0,0,0,0,0,-0.3452,-0.3454,-0.347,-0.3468,-0.3467,-0.3322,-0.3319,-0.3316,-0.3153,-0.3151,-0.3149,-0.3147,-0.2932,-0.2927,-0.2922,0,0,0,0,0,0,0,0,0,0,0,0,0,-0.3392,-0.3454,-0.347,-0.3373,-0.3363,-0.3322,-0.3319,-0.3316,-0.3154,-0.3151,-0.3149,-0.3146,-0.2933,-0.2927,-0.2921,-0.2936,0,0,-0.2902,-0.29,0,0,0,0,0,0,0,0,-0.3396,-0.3392,-0.3389,-0.338,-0.3369,-0.3259,-0.3233,-0.3188,-0.3155,-0.3226,-0.3148,-0.3145,-0.304,-0.3025,-0.2995,-0.2926,-0.2917,-0.2902,-0.2898,-0.2895,-0.2894,0,0,0,0,0,0,0,-0.34,-0.3396,-0.3404,-0.3388,-0.3376,-0.3283,-0.3272,-0.3223,-0.3144,-0.322,-0.3209,-0.3204,-0.3033,-0.3001,-0.2988,-0.2914,-0.2902,-0.2896,-0.2893,-0.289,-0.2817,-0.2819,0,0,0,0,0,0,-0.3444,-0.3402,-0.3409,-0.34,-0.3383,-0.3287,-0.3274,-0.3291,-0.3145,-0.3123,-0.3207,-0.3197,-0.3013,-0.2996,-0.298,-0.2941,-0.2895,-0.289,-0.2886,-0.2816,-0.2818,-0.282,0,0,0,0,0,0,-0.3445,-0.3447,-0.3415,-0.3401,-0.3391,-0.3292,-0.3311,-0.329,-0.326,-0.3137,-0.3111,-0.32,-0.301,-0.2989,-0.2943,-0.2933,-0.2887,-0.2881,-0.2813,-0.2816,-0.2819,-0.2894,0,0,0,0,0,0,-0.3445,-0.3449,-0.3481,-0.3405,-0.3394,-0.3416,-0.3314,-0.3289,-0.3265,-0.325,-0.3124,-0.31,-0.3006,-0.2953,-0.2937,-0.2923,-0.2876,-0.2811,-0.2815,-0.2818,-0.2889,-0.2898,-0.2907,0,0,0,0,0,-0.3445,-0.3502,-0.3484,-0.3485,-0.3442,-0.3419,-0.3405,-0.3318,-0.3268,-0.3276,-0.3181,-0.3104,-0.2962,-0.295,-0.2931,-0.2915,-0.281,-0.2814,-0.2818,-0.2885,-0.2897,-0.2906,0,0,0,0,0,0,-0.3513,-0.349,-0.3468,-0.3516,-0.3485,-0.3394,-0.3393,-0.3343,-0.3275,-0.3249,-0.3129,-0.3101,-0.3065,-0.2999,-0.2989,-0.2911,-0.2873,-0.2874,-0.2931,-0.2941,-0.295,-0.2925,-0.2871,0,0,0,0,0,-0.3551,-0.3578,-0.3542,-0.3577,-0.357,-0.3489,-0.347,-0.3414,-0.3345,-0.3311,-0.3223,-0.3133,-0.3069,-0.3014,-0.2963,-0.2917,-0.2821,-0.2898,-0.2907,-0.2914,-0.2885,-0.274,-0.2731,-0.2833,-0.2833,-0.2833,0,0,-0.3582,-0.3576,-0.3589,-0.3592,-0.355,-0.3515,-0.3469,-0.345,-0.3395,-0.3302,-0.3216,-0.318,-0.3078,-0.3022,-0.2997,-0.2955,-0.2847,-0.292,-0.2926,-0.2891,-0.2743,-0.2732,-0.2722,-0.2836,-0.2835,-0.2835,0,0,-0.3619,-0.3659,-0.3667,-0.3649,-0.3614,-0.3564,-0.3573,-0.3502,-0.3452,-0.34,-0.3314,-0.3275,-0.3171,-0.3083,-0.3025,-0.3062,-0.2925,-0.3056,-0.3036,-0.2898,-0.2886,-0.2874,-0.2776,-0.2755,-0.3027,-0.3027,-0.3027,0,-0.365,-0.3633,-0.3668,-0.3651,-0.3597,-0.3589,-0.3531,-0.3511,-0.3428,-0.3364,-0.3384,-0.3223,-0.3185,-0.3054,-0.3082,-0.3074,-0.2979,-0.2997,-0.2902,-0.2889,-0.2876,-0.2777,-0.2753,-0.3031,-0.3031,-0.303,-0.303,0,-0.3659,-0.363,-0.3636,-0.3591,-0.3577,-0.3533,-0.3501,-0.3479,-0.3435,-0.3372,-0.329,-0.3255,-0.3134,-0.315,-0.3127,-0.3017,-0.298,-0.2954,-0.2863,-0.2869,-0.2767,-0.274,-0.3037,-0.3036,-0.3034,-0.3033,0,0,-0.369,-0.364,-0.3625,-0.3526,-0.351,-0.3459,-0.3437,-0.3342,-0.3253,-0.3257,-0.3112,-0.3115,-0.3106,-0.3048,-0.3028,-0.2941,-0.2837,-0.2916,-0.2906,-0.2797,-0.2533,-0.2458,-0.2421,-0.277,-0.2765,-0.2761,-0.2511,0,-0.3628,-0.3522,-0.3544,-0.3395,-0.3291,-0.3295,-0.3243,-0.3187,-0.3154,-0.3051,-0.304,-0.2945,-0.3059,-0.3004,-0.2951,-0.286,-0.2762,-0.2907,-0.2561,-0.2551,-0.2463,-0.2386,-0.2294,-0.2057,-0.2484,-0.2479,-0.2476,0,-0.3557,-0.3471,-0.3325,-0.3153,-0.3121,-0.3082,-0.2933,-0.2893,-0.283,-0.2794,-0.2757,-0.2764,-0.2702,-0.2785,-0.2625,-0.2703,-0.2627,-0.2568,-0.2555,-0.2425,-0.2423,-0.2114,-0.199,-0.1992,-0.2433,-0.2437,-0.244,0,-0.3393,-0.3273,-0.3117,-0.3072,-0.2957,-0.2898,-0.2847,-0.2796,-0.2714,-0.2638,-0.2566,-0.2525,-0.2469,-0.2395,-0.2402,-0.2469,-0.2184,-0.2239,-0.2089,-0.2085,-0.1906,-0.1893,-0.1711,-0.2057,-0.2058,-0.2059,-0.2059,0,-0.3224,-0.3085,-0.3027,-0.2926,-0.2734,-0.2737,-0.2576,-0.2535,-0.2468,-0.2355,-0.2427,-0.2323,-0.2364,-0.2268,-0.227,-0.2098,-0.207,-0.2044,-0.1985,-0.194,-0.1933,-0.1846,-0.19,-0.2049,-0.2051,-0.2053,-0.2055,0,-0.3016,-0.2997,-0.2788,-0.2672,-0.2641,-0.2501,-0.2415,-0.2314,-0.2286,-0.2146,-0.212,-0.2107,-0.2006,-0.2025,-0.1878,-0.1888,-0.1701,-0.1682,-0.1664,-0.1607,-0.1506,-0.157,-0.1294,-0.126,-0.1462,-0.1458,-0.1455,0,-0.2869,-0.2749,-0.2597,-0.2502,-0.2452,-0.2305,-0.2227,-0.2199,-0.2124,-0.2013,-0.192,-0.1827,-0.175,-0.1533,-0.1499,-0.1396,-0.148,-0.1257,-0.138,-0.1435,-0.1462,-0.1538,-0.1538,-0.1192,-0.1186,-0.1182,-0.1179,0,-0.2577,-0.2567,-0.2433,-0.2241,-0.2143,-0.1998,-0.1909,-0.1838,-0.1824,-0.173,-0.1596,-0.153,-0.1385,-0.125,-0.1147,-0.1103,-0.1236,-0.1167,-0.1183,-0.1183,-0.1282,-0.1243,-0.1477,-0.1142,-0.1146,-0.1148,-0.115,-0.1152,-0.2391,-0.2246,-0.2126,-0.1929,-0.1826,-0.1691,-0.1562,-0.152,-0.1383,-0.1232,-0.1287,-0.1102,-0.1093,-0.0931,-0.0879,-0.079,-0.0911,-0.0814,-0.087,-0.0931,-0.0933,-0.1113,-0.0748,-0.0749,-0.0751,-0.0752,-0.0753,0,-0.2123,-0.201,-0.1815,-0.1608,-0.1441,-0.1452,-0.1333,-0.1228,-0.1073,-0.0954,-0.0834,-0.0694,-0.0602,-0.0606,-0.0565,-0.053,-0.057,-0.0548,-0.0643,-0.0646,-0.0725,-0.0754,-0.0421,-0.0421,-0.0421,-0.0421,-0.0421,-0.0421,-0.1982,-0.1747,-0.1639,-0.1284,-0.1159,-0.094,-0.0857,-0.0761,-0.0661,-0.0429,-0.0269,-0.0219,-0.0336,-0.0445,-0.0448,-0.0431,-0.0486,-0.044,-0.0512,-0.0614,-0.0646,-0.0676,-0.0713,-0.0377,-0.0377,-0.0397,-0.0397,-0.0397]},{"header":{"parameterUnit":"m.s-1","parameterCategory":2,"la1":30.2991,"la2":30.254,"lo1":-89.0895,"lo2":-89.0444,"dy":0.0017,"dx":0.0017,"nx":28,"ny":28,"refTime":"2025-02-03T03:00:00:Z","depth":"0","parameterNumber":3,"parameterNumberName":"V-component_of_CURRENTS"},"data":[0,0,0,0,0,0,0,0,0,0,0,0,0,0,0,0,0,0,0,0,0,0,0,0,0,0,0,0,0,0,0,0,0,0,0,0,0,0,0,0,0,0,0,0,0,0,0,0,0,0,0,0,0,0,0,0,0,0,0.0725,0.0726,0,0.0878,0.088,0.0881,0.095,0.095,0.095,0.095,0.1093,0.1097,0.1101,0,0,0,0,0,0,0,0,0,0,0,0,0,0.0561,0.0563,0.0724,0.0726,0.0728,0.0878,0.088,0.0882,0.095,0.095,0.095,0.0949,0.1092,0.1096,0.1101,0,0,0,0,0,0,0,0,0,0,0,0,0,0.0663,0.0563,0.0724,0.0781,0.0788,0.0877,0.088,0.0882,0.095,0.095,0.095,0.0949,0.109,0.1096,0.1102,0.1141,0,0,0.112,0.1122,0,0,0,0,0,0,0,0,0.0657,0.0669,0.0771,0.0777,0.0785,0.0895,0.0875,0.0969,0.095,0.0887,0.095,0.0949,0.1027,0.1038,0.1066,0.1148,0.1154,0.112,0.1124,0.1126,0.1128,0,0,0,0,0,0,0,0.065,0.0664,0.0784,0.0773,0.0782,0.0823,0.0837,0.0893,0.0955,0.0893,0.0898,0.0917,0.103,0.106,0.107,0.1156,0.112,0.1125,0.1129,0.1131,0.1261,0.1261,0,0,0,0,0,0,0.063,0.0657,0.078,0.0789,0.0721,0.0826,0.0841,0.0859,0.0955,0.097,0.0917,0.092,0.105,0.1063,0.1075,0.1055,0.1126,0.1132,0.1135,0.1261,0.1261,0.1261,0,0,0,0,0,0,0.0626,0.0639,0.0773,0.0727,0.0747,0.0828,0.0849,0.0862,0.0887,0.0974,0.0988,0.0927,0.1051,0.1067,0.1118,0.1063,0.1135,0.114,0.1261,0.1261,0.1261,0.106,0,0,0,0,0,0,0.062,0.0637,0.0635,0.0725,0.0749,0.0803,0.0849,0.0866,0.09,0.0905,0.0987,0.1001,0.1052,0.1109,0.1124,0.1073,0.1144,0.1261,0.1261,0.1261,0.1067,0.1053,0.1042,0,0,0,0,0,0.0614,0.0602,0.0634,0.0649,0.0746,0.0802,0.0817,0.0874,0.09,0.0898,0.0963,0.0998,0.1118,0.1114,0.1131,0.108,0.1261,0.1261,0.1261,0.1073,0.1056,0.1042,0,0,0,0,0,0,0.0504,0.0611,0.0647,0.0661,0.072,0.0813,0.0814,0.0866,0.0919,0.0918,0.1004,0.1022,0.1055,0.1108,0.1101,0.1124,0.1193,0.1196,0.1044,0.1029,0.1017,0.1013,0.1149,0,0,0,0,0,0.0487,0.0517,0.0612,0.0617,0.0643,0.073,0.0759,0.0801,0.0866,0.0889,0.0952,0.1017,0.1071,0.108,0.1152,0.1154,0.1221,0.1137,0.1124,0.1112,0.1126,0.1196,0.1189,0.126,0.126,0.126,0,0,0.0439,0.0505,0.0516,0.0598,0.0646,0.0657,0.0745,0.0774,0.0778,0.0896,0.0911,0.099,0.1074,0.1085,0.11,0.1111,0.1118,0.1112,0.11,0.1121,0.1195,0.1188,0.1181,0.126,0.126,0.126,0,0,0.0354,0.0421,0.0413,0.046,0.0533,0.0592,0.0596,0.0687,0.0717,0.0756,0.0841,0.0888,0.0967,0.1004,0.1035,0.1,0.1073,0.1016,0.0911,0.0977,0.0971,0.0967,0.0989,0.0988,0.0977,0.0977,0.0977,0,0.0283,0.0314,0.0411,0.0412,0.0449,0.0552,0.0546,0.058,0.0674,0.0714,0.0733,0.088,0.0925,0.0954,0.0923,0.0964,0.1014,0.0945,0.0955,0.0953,0.0953,0.0977,0.0979,0.0967,0.0968,0.0969,0.097,0,0.0205,0.0225,0.0219,0.0269,0.0308,0.0324,0.0401,0.0437,0.0498,0.0559,0.0632,0.071,0.0808,0.0796,0.0835,0.0846,0.0885,0.0948,0.0979,0.0932,0.0962,0.0968,0.0953,0.0957,0.096,0.0962,0,0,0.0054,0.0151,0.0144,0.0183,0.0253,0.0293,0.0288,0.0362,0.0413,0.0454,0.0525,0.0554,0.0641,0.0686,0.0744,0.0752,0.0738,0.0818,0.0826,0.0812,0.0857,0.0809,0.0811,0.0803,0.0804,0.0805,0.0859,0,-0.0035,-0.0023,0.004,0.0044,0.0071,0.0173,0.0192,0.0262,0.0346,0.0433,0.0491,0.0584,0.0582,0.0645,0.0645,0.0769,0.0755,0.0717,0.0933,0.0939,0.0878,0.0817,0.0824,0.0868,0.0865,0.0866,0.0867,0,-0.0133,-0.0087,-0.0087,0.0031,0.005,0.0058,0.0188,0.0222,0.0336,0.0407,0.0478,0.0576,0.0607,0.0631,0.0725,0.0707,0.0757,0.0809,0.0815,0.0855,0.0902,0.0931,0.088,0.0961,0.0877,0.0877,0.0876,0,-0.022,-0.0169,-0.0143,-0.0118,-0.0003,0.0027,0.0097,0.0215,0.0294,0.041,0.0488,0.0565,0.0636,0.0702,0.0767,0.0774,0.0874,0.0918,0.0904,0.0901,0.0995,0.0997,0.1033,0.0972,0.0972,0.0972,0.0972,0,-0.0302,-0.0287,-0.0172,-0.0159,-0.0089,-0.0002,0.0094,0.0172,0.0308,0.0414,0.0482,0.056,0.0663,0.0734,0.0781,0.0839,0.0887,0.0879,0.0914,0.0918,0.0914,0.1064,0.1102,0.0974,0.0974,0.0973,0.0973,0,-0.0403,-0.0341,-0.0295,-0.0177,-0.013,-0.0077,0.0096,0.0198,0.0292,0.0432,0.0469,0.0577,0.0646,0.0715,0.0835,0.0862,0.0968,0.0933,0.0894,0.0921,0.0977,0.1004,0.1078,0.1145,0.0945,0.0945,0.0944,0,-0.0445,-0.0435,-0.0314,-0.0237,-0.0183,-0.0071,0.0043,0.0173,0.029,0.0437,0.0508,0.0584,0.0651,0.075,0.0805,0.0867,0.0935,0.0918,0.0922,0.096,0.1019,0.1025,0.108,0.0957,0.0957,0.0956,0.0956,0,-0.0513,-0.0478,-0.0417,-0.0247,-0.0134,0.0004,0.0158,0.0232,0.04,0.0505,0.0632,0.0676,0.0705,0.0763,0.079,0.083,0.0974,0.0908,0.0999,0.1054,0.1023,0.1112,0.091,0.0952,0.0953,0.0953,0.0953,0.0953,-0.0554,-0.0504,-0.038,-0.0212,-0.007,0.0109,0.0232,0.0374,0.0535,0.0734,0.0738,0.0864,0.0824,0.0844,0.0865,0.0928,0.0931,0.0995,0.1028,0.1033,0.1081,0.0819,0.0867,0.0867,0.0867,0.0867,0.0867,0,-0.0549,-0.0446,-0.0304,-0.0087,0.0109,0.0171,0.0367,0.05,0.0682,0.083,0.0964,0.1091,0.1052,0.102,0.1011,0.1076,0.1122,0.1123,0.1181,0.1239,0.1067,0.105,0.1078,0.1078,0.1078,0.1078,0.1078,0.1078,-0.0524,-0.0386,-0.0272,0.0066,0.0233,0.0495,0.0611,0.0735,0.0867,0.1106,0.1272,0.1362,0.1301,0.1213,0.1231,0.1249,0.1378,0.1314,0.1404,0.1322,0.1315,0.1307,0.1302,0.1383,0.1383,0.1591,0.1593,0.1595]}],[{"header":{"parameterUnit":"m.s-1","parameterCategory":2,"la1":30.2991,"la2":30.254,"lo1":-89.0895,"lo2":-89.0444,"dy":0.0017,"dx":0.0017,"nx":28,"ny":28,"refTime":"2025-02-03T03:00:00:Z","depth":"2","parameterNumber":2,"parameterNumberName":"U-component_of_CURRENTS"},"data":[0,0,0,0,0,0,0,0,0,0,0,0,0,0,0,0,0,0,0,0,0,0,0,0,0,0,0,0,0,0,0,0,0,0,0,0,0,0,0,0,0,0,0,0,0,0,0,0,0,0,0,0,0,0,0,0,0,0,-0.2198,-0.2198,0,-0.2326,-0.2328,-0.2331,-0.2469,-0.247,-0.247,-0.2471,-0.2479,-0.2479,-0.2478,0,0,0,0,0,0,0,0,0,0,0,0,0,-0.205,-0.2054,-0.2198,-0.2198,-0.2199,-0.2325,-0.2328,-0.2331,-0.2469,-0.247,-0.2471,-0.2472,-0.2479,-0.2479,-0.2478,0,0,0,0,0,0,0,0,0,0,0,0,0,-0.2152,-0.2055,-0.2198,-0.2273,-0.228,-0.2325,-0.2328,-0.2332,-0.2469,-0.247,-0.2471,-0.2472,-0.248,-0.2479,-0.2478,-0.2451,0,0,-0.2476,-0.2475,0,0,0,0,0,0,0,0,-0.2147,-0.216,-0.2261,-0.2267,-0.2275,-0.2371,-0.2279,-0.2361,-0.2468,-0.2411,-0.2471,-0.2473,-0.2422,-0.2426,-0.2469,-0.2451,-0.2451,-0.2476,-0.2475,-0.2475,-0.2475,0,0,0,0,0,0,0,-0.2139,-0.2154,-0.2262,-0.2261,-0.227,-0.2291,-0.2309,-0.2296,-0.2417,-0.2416,-0.2423,-0.2416,-0.2427,-0.2469,-0.2469,-0.2451,-0.2476,-0.2475,-0.2475,-0.2474,-0.2509,-0.2511,0,0,0,0,0,0,-0.2097,-0.2148,-0.2258,-0.2264,-0.2197,-0.2292,-0.2312,-0.235,-0.242,-0.2429,-0.2415,-0.2421,-0.247,-0.247,-0.2469,-0.2526,-0.2475,-0.2474,-0.2474,-0.2508,-0.251,-0.2511,0,0,0,0,0,0,-0.2095,-0.2108,-0.2252,-0.2195,-0.2214,-0.2292,-0.2334,-0.2351,-0.2424,-0.2417,-0.2427,-0.2471,-0.2471,-0.247,-0.2504,-0.2523,-0.2474,-0.2473,-0.2506,-0.2509,-0.2511,-0.2581,0,0,0,0,0,0,-0.2091,-0.2108,-0.2154,-0.2194,-0.2215,-0.2295,-0.2332,-0.2353,-0.2409,-0.2421,-0.2467,-0.2468,-0.2472,-0.2505,-0.2503,-0.2521,-0.2473,-0.2505,-0.2507,-0.251,-0.2577,-0.2585,-0.2592,0,0,0,0,0,-0.2086,-0.2122,-0.2157,-0.217,-0.2267,-0.2295,-0.2311,-0.2376,-0.2411,-0.2448,-0.2491,-0.2469,-0.2519,-0.2506,-0.2503,-0.2521,-0.2503,-0.2507,-0.251,-0.2574,-0.2584,-0.2592,0,0,0,0,0,0,-0.2088,-0.2139,-0.2178,-0.2234,-0.227,-0.2313,-0.2353,-0.2388,-0.2459,-0.2479,-0.2488,-0.2492,-0.2534,-0.2514,-0.2498,-0.254,-0.2506,-0.2508,-0.2555,-0.2564,-0.2572,-0.254,-0.2472,0,0,0,0,0,-0.2104,-0.2133,-0.2189,-0.2223,-0.2257,-0.2314,-0.2344,-0.2382,-0.2424,-0.2462,-0.2476,-0.2502,-0.2539,-0.2543,-0.2562,-0.257,-0.2496,-0.258,-0.2587,-0.2594,-0.2567,-0.2464,-0.2459,-0.2521,-0.2521,-0.2521,0,0,-0.2093,-0.2131,-0.2143,-0.2222,-0.2268,-0.233,-0.2342,-0.2386,-0.2436,-0.244,-0.2512,-0.2531,-0.2553,-0.2591,-0.2603,-0.2576,-0.2547,-0.2598,-0.2604,-0.2572,-0.2467,-0.246,-0.2454,-0.2524,-0.2523,-0.2523,0,0,-0.2073,-0.2148,-0.2179,-0.2223,-0.2286,-0.2339,-0.2355,-0.2414,-0.2457,-0.2514,-0.2542,-0.2566,-0.2608,-0.2621,-0.264,-0.2688,-0.2602,-0.2699,-0.2697,-0.2599,-0.2592,-0.2584,-0.2513,-0.2499,-0.2689,-0.2689,-0.2689,0,-0.2061,-0.2127,-0.2185,-0.2239,-0.227,-0.2349,-0.2396,-0.2462,-0.2512,-0.2508,-0.2544,-0.259,-0.2624,-0.2646,-0.2695,-0.2703,-0.2633,-0.2665,-0.2605,-0.2596,-0.2586,-0.2515,-0.2498,-0.2693,-0.2693,-0.2692,-0.2692,0,-0.2092,-0.2142,-0.216,-0.227,-0.2325,-0.2359,-0.2451,-0.2497,-0.2554,-0.2576,-0.2599,-0.2641,-0.2646,-0.2683,-0.2726,-0.2686,-0.2655,-0.2636,-0.2573,-0.2583,-0.2509,-0.249,-0.2698,-0.2697,-0.2696,-0.2695,0,0,-0.2034,-0.2155,-0.2162,-0.2206,-0.2337,-0.2375,-0.2465,-0.2527,-0.2536,-0.26,-0.2574,-0.2684,-0.2659,-0.2677,-0.2698,-0.2642,-0.2574,-0.2621,-0.2614,-0.2536,-0.2356,-0.2257,-0.2226,-0.2527,-0.2524,-0.2521,-0.2341,0,-0.2032,-0.2107,-0.2185,-0.2261,-0.231,-0.2403,-0.2456,-0.2518,-0.2562,-0.2555,-0.2586,-0.2596,-0.2673,-0.2667,-0.2631,-0.2586,-0.252,-0.2624,-0.2369,-0.2361,-0.2258,-0.2198,-0.208,-0.19,-0.2321,-0.2318,-0.2315,0,-0.2016,-0.2087,-0.2155,-0.2223,-0.2256,-0.2336,-0.2404,-0.2453,-0.2475,-0.2485,-0.2487,-0.2498,-0.2491,-0.253,-0.2424,-0.2481,-0.2424,-0.238,-0.2371,-0.2225,-0.2223,-0.1952,-0.1848,-0.2282,-0.2285,-0.2287,-0.2289,0,-0.1916,-0.2024,-0.2076,-0.2117,-0.2253,-0.2299,-0.2372,-0.2418,-0.242,-0.2428,-0.24,-0.2384,-0.2366,-0.2294,-0.2277,-0.2325,-0.2107,-0.2151,-0.1997,-0.1991,-0.181,-0.1792,-0.2014,-0.2014,-0.2015,-0.2015,-0.2016,0,-0.1857,-0.1892,-0.2045,-0.2093,-0.2152,-0.2246,-0.2273,-0.2326,-0.2331,-0.2284,-0.2351,-0.2281,-0.2298,-0.2207,-0.2187,-0.2022,-0.2027,-0.1957,-0.1912,-0.1838,-0.1826,-0.2094,-0.2106,-0.2009,-0.201,-0.2011,-0.2013,0,-0.1744,-0.1834,-0.1897,-0.2055,-0.2109,-0.2156,-0.2258,-0.2233,-0.2267,-0.2203,-0.2201,-0.218,-0.2055,-0.204,-0.1902,-0.1883,-0.1752,-0.1687,-0.1621,-0.157,-0.1731,-0.1749,-0.1483,-0.1478,-0.1473,-0.1469,-0.1466,0,-0.1682,-0.1709,-0.1865,-0.1912,-0.2014,-0.2099,-0.2119,-0.2201,-0.217,-0.2111,-0.2045,-0.1945,-0.1819,-0.1612,-0.1537,-0.1414,-0.1549,-0.126,-0.1334,-0.168,-0.1664,-0.169,-0.1714,-0.1143,-0.1138,-0.1133,-0.1129,0,-0.1582,-0.1639,-0.1706,-0.1799,-0.1874,-0.1941,-0.1994,-0.1964,-0.1985,-0.1915,-0.176,-0.165,-0.1469,-0.1266,-0.1153,-0.1092,-0.1282,-0.1158,-0.1459,-0.1308,-0.1347,-0.1337,-0.1373,-0.1088,-0.1092,-0.1095,-0.1097,-0.1099,-0.1472,-0.1496,-0.1563,-0.1642,-0.1709,-0.1745,-0.1712,-0.1714,-0.1629,-0.1463,-0.1466,-0.1248,-0.1206,-0.0919,-0.0836,-0.0808,-0.0917,-0.0924,-0.0943,-0.0966,-0.097,-0.0999,-0.0677,-0.0679,-0.068,-0.0682,-0.0683,0,-0.1321,-0.1375,-0.1404,-0.1488,-0.1468,-0.1599,-0.1567,-0.1446,-0.1268,-0.1187,-0.103,-0.0835,-0.0672,-0.0653,-0.0519,-0.0496,-0.0556,-0.0503,-0.0596,-0.0634,-0.0669,-0.0665,-0.0287,-0.0286,-0.0286,-0.0285,0,0,-0.1254,-0.122,-0.1241,-0.1197,-0.127,-0.1204,-0.1151,-0.098,-0.0861,-0.0659,-0.0565,-0.0556,-0.0578,-0.0418,-0.0389,-0.0308,-0.0474,-0.0289,-0.0598,-0.0741,-0.0775,-0.0892,-0.0925,0,0,0,0,0]},{"header":{"parameterUnit":"m.s-1","parameterCategory":2,"la1":30.2991,"la2":30.254,"lo1":-89.0895,"lo2":-89.0444,"dy":0.0017,"dx":0.0017,"nx":28,"ny":28,"refTime":"2025-02-03T03:00:00:Z","depth":"2","parameterNumber":3,"parameterNumberName":"V-component_of_CURRENTS"},"data":[0,0,0,0,0,0,0,0,0,0,0,0,0,0,0,0,0,0,0,0,0,0,0,0,0,0,0,0,0,0,0,0,0,0,0,0,0,0,0,0,0,0,0,0,0,0,0,0,0,0,0,0,0,0,0,0,0,0,-0.063,-0.0627,0,-0.0366,-0.0363,-0.0359,-0.0192,-0.0192,-0.0191,-0.019,0.0121,0.0129,0.0136,0,0,0,0,0,0,0,0,0,0,0,0,0,-0.0729,-0.073,-0.063,-0.0627,-0.0624,-0.0366,-0.0362,-0.0359,-0.0193,-0.0192,-0.0191,-0.019,0.0119,0.0128,0.0137,0,0,0,0,0,0,0,0,0,0,0,0,0,-0.0597,-0.073,-0.0631,-0.0511,-0.0497,-0.0367,-0.0362,-0.0358,-0.0193,-0.0192,-0.019,-0.0189,0.0116,0.0127,0.0138,0.0182,0,0,0.0172,0.0177,0,0,0,0,0,0,0,0,-0.0605,-0.0594,-0.0532,-0.0519,-0.0504,-0.0312,-0.0283,-0.0175,-0.0193,-0.0307,-0.019,-0.0188,-0.0021,0.0002,0.005,0.0196,0.021,0.0173,0.018,0.0185,0.0188,0,0,0,0,0,0,0,-0.0615,-0.0603,-0.0524,-0.0528,-0.0511,-0.038,-0.0362,-0.0261,-0.0173,-0.0297,-0.0285,-0.0258,-0.0013,0.0038,0.0058,0.0214,0.0173,0.0183,0.019,0.0194,0.0496,0.0497,0,0,0,0,0,0,-0.0666,-0.0613,-0.0533,-0.0516,-0.0554,-0.0381,-0.036,-0.0374,-0.0174,-0.0143,-0.0259,-0.0251,0.0018,0.0045,0.007,0.0211,0.0185,0.0195,0.0202,0.0494,0.0496,0.0497,0,0,0,0,0,0,-0.067,-0.0663,-0.0543,-0.0556,-0.0532,-0.0383,-0.0397,-0.0369,-0.0283,-0.0146,-0.0114,-0.0198,0.0021,0.0054,0.018,0.0222,0.02,0.0211,0.0493,0.0495,0.0497,0.0445,0,0,0,0,0,0,-0.0674,-0.0667,-0.067,-0.0562,-0.0534,-0.0466,-0.0397,-0.0365,-0.0271,-0.0257,-0.0084,-0.0055,0.0024,0.0162,0.0191,0.0237,0.0219,0.0491,0.0494,0.0496,0.0445,0.0445,0.0444,0,0,0,0,0,-0.0679,-0.0695,-0.0673,-0.0661,-0.0554,-0.0466,-0.0439,-0.0324,-0.027,-0.024,-0.0119,-0.0059,0.0198,0.0172,0.0206,0.0256,0.049,0.0493,0.0496,0.0445,0.0445,0.0444,0,0,0,0,0,0,-0.0739,-0.0677,-0.065,-0.0648,-0.0565,-0.0438,-0.0389,-0.0314,-0.0192,-0.0166,-0.0038,-0.0001,0.013,0.0192,0.0161,0.0347,0.0353,0.0362,0.0303,0.0304,0.0303,0.0258,0.0229,0,0,0,0,0,-0.0762,-0.0762,-0.0673,-0.0671,-0.0631,-0.0507,-0.0446,-0.0374,-0.0261,-0.0204,-0.01,0.0027,0.0163,0.0229,0.0338,0.0437,0.0448,0.0489,0.0488,0.0488,0.0473,0.0529,0.0531,0.0506,0.0506,0.0506,0,0,-0.0784,-0.0751,-0.0748,-0.0683,-0.0605,-0.0538,-0.0466,-0.0381,-0.0312,-0.0191,-0.0077,0.0035,0.019,0.0307,0.037,0.0367,0.0494,0.0491,0.049,0.0475,0.0532,0.0534,0.0535,0.0508,0.0508,0.0508,0,0,-0.0812,-0.0801,-0.0788,-0.0732,-0.0629,-0.0549,-0.0525,-0.0403,-0.0332,-0.0223,-0.01,0.002,0.0193,0.031,0.04,0.0461,0.0497,0.0506,0.0469,0.0524,0.0525,0.0527,0.0504,0.0504,0.0498,0.0498,0.0498,0,-0.0827,-0.0822,-0.0765,-0.0729,-0.0678,-0.0558,-0.051,-0.0418,-0.0275,-0.0223,-0.0201,0.0067,0.0195,0.0373,0.0402,0.0462,0.0466,0.0459,0.052,0.0522,0.0525,0.0501,0.0502,0.0496,0.0496,0.0497,0.0497,0,-0.083,-0.0818,-0.0805,-0.0729,-0.0665,-0.0615,-0.0495,-0.0429,-0.0341,-0.0253,-0.0102,0.0049,0.0201,0.0274,0.0371,0.0479,0.0464,0.0515,0.0509,0.0523,0.0498,0.05,0.0493,0.0494,0.0494,0.0495,0,0,-0.0875,-0.0818,-0.0811,-0.0783,-0.0668,-0.0613,-0.052,-0.0399,-0.0331,-0.0219,-0.0141,0.009,0.0149,0.0252,0.038,0.0435,0.0464,0.0475,0.0479,0.0429,0.052,0.0494,0.0493,0.0525,0.0526,0.0527,0.0479,0,-0.0879,-0.0853,-0.0805,-0.0745,-0.0709,-0.0609,-0.0536,-0.0419,-0.0316,-0.0227,-0.0073,0.0062,0.0155,0.0234,0.0305,0.0451,0.0473,0.0468,0.0534,0.0534,0.0493,0.0497,0.0493,0.0451,0.0481,0.0481,0.0481,0,-0.0878,-0.0863,-0.0834,-0.0769,-0.074,-0.0682,-0.0561,-0.0482,-0.0331,-0.0263,-0.0138,-0.0015,0.0136,0.0186,0.0359,0.0349,0.0419,0.049,0.0491,0.0486,0.0513,0.0454,0.0453,0.0484,0.0484,0.0484,0.0483,0,-0.0925,-0.0874,-0.0862,-0.084,-0.0743,-0.0705,-0.0635,-0.0496,-0.0425,-0.0285,-0.0234,-0.0061,0.0034,0.015,0.0317,0.0341,0.0446,0.0502,0.0517,0.0513,0.0532,0.0528,0.0572,0.0572,0.0572,0.0572,0.0572,0,-0.0944,-0.0928,-0.0889,-0.0876,-0.0845,-0.0759,-0.0688,-0.0607,-0.0487,-0.0406,-0.0256,-0.0178,0.0033,0.0141,0.0264,0.038,0.0402,0.0492,0.0512,0.0509,0.0505,0.0568,0.0568,0.057,0.057,0.0571,0.0571,0,-0.0976,-0.0962,-0.0946,-0.0886,-0.0867,-0.0841,-0.0734,-0.0679,-0.0572,-0.0473,-0.0429,-0.0259,-0.012,0.0049,0.023,0.0313,0.0429,0.0456,0.0397,0.0411,0.0456,0.0455,0.0458,0.0456,0.0456,0.0455,0.0454,0,-0.0987,-0.0992,-0.0971,-0.0974,-0.0943,-0.0894,-0.0855,-0.0736,-0.0675,-0.0518,-0.0484,-0.033,-0.0201,0.0001,0.0178,0.0331,0.0382,0.0388,0.0458,0.0432,0.0451,0.0451,0.045,0.0439,0.0439,0.0438,0.0438,0,-0.1003,-0.1008,-0.0996,-0.1015,-0.0993,-0.096,-0.0896,-0.0862,-0.072,-0.0635,-0.0524,-0.0416,-0.0209,-0.0019,0.0168,0.0266,0.037,0.0379,0.0396,0.0472,0.0413,0.0432,0.0433,0.0433,0.0433,0.0433,0.0434,0.0434,-0.1015,-0.1028,-0.1031,-0.1035,-0.1035,-0.1016,-0.0965,-0.0901,-0.0814,-0.0654,-0.058,-0.0394,-0.0224,0.0071,0.0194,0.0319,0.0336,0.0394,0.0397,0.04,0.041,0.0355,0.0359,0.0359,0.0359,0.0359,0.0359,0,-0.1017,-0.1038,-0.1048,-0.1053,-0.1056,-0.1035,-0.0979,-0.0902,-0.0816,-0.0675,-0.0544,-0.0315,-0.0123,0.0063,0.0257,0.0353,0.0377,0.037,0.0399,0.0402,0.0406,0.0418,0.0368,0.0368,0.0368,0.0369,0,0,-0.1024,-0.1034,-0.1035,-0.1051,-0.1059,-0.1011,-0.0972,-0.0868,-0.0752,-0.0595,-0.0449,-0.0295,-0.0083,0.0053,0.0182,0.0288,0.0318,0.0294,0.0277,0.0298,0.0301,0.0409,0.0431,0,0,0,0,0]}],[{"header":{"parameterUnit":"m.s-1","parameterCategory":2,"la1":30.2991,"la2":30.254,"lo1":-89.0895,"lo2":-89.0444,"dy":0.0017,"dx":0.0017,"nx":28,"ny":28,"refTime":"2025-02-03T03:00:00:Z","depth":"4","parameterNumber":2,"parameterNumberName":"U-component_of_CURRENTS"},"data":[0,0,0,0,0,0,0,0,0,0,0,0,0,0,0,0,0,0,0,0,0,0,0,0,0,0,0,0,0,0,0,0,0,0,0,0,0,0,0,0,0,0,0,0,0,0,0,0,0,0,0,0,0,0,0,0,0,0,-0.0787,-0.0788,0,-0.0851,-0.0852,-0.0852,-0.088,-0.088,-0.0881,-0.0881,-0.0962,-0.0964,-0.0966,0,0,0,0,0,0,0,0,0,0,0,0,0,-0.0767,-0.0766,-0.0787,-0.0788,-0.0789,-0.0851,-0.0852,-0.0852,-0.088,-0.088,-0.0881,-0.0881,-0.0962,-0.0964,-0.0966,0,0,0,0,0,0,0,0,0,0,0,0,0,-0.0793,-0.0766,-0.0787,-0.0814,-0.0817,-0.0851,-0.0852,-0.0852,-0.088,-0.0881,-0.0881,-0.0881,-0.0961,-0.0964,-0.0967,-0.0975,0,0,-0.0975,-0.0976,0,0,0,0,0,0,0,0,-0.0792,-0.0794,-0.0809,-0.0812,-0.0816,-0.0862,-0.0875,-0.0896,-0.088,-0.0852,-0.0881,-0.0882,-0.0933,-0.0938,-0.0943,-0.0979,-0.0982,-0.0975,-0.0977,-0.0978,-0.0979,0,0,0,0,0,0,0,-0.079,-0.0792,-0.0808,-0.081,-0.0815,-0.085,-0.0853,-0.0879,-0.0886,-0.0854,-0.0857,-0.0871,-0.0934,-0.094,-0.0945,-0.0983,-0.0975,-0.0978,-0.098,-0.0981,-0.1102,-0.1103,0,0,0,0,0,0,-0.0786,-0.0789,-0.0806,-0.081,-0.081,-0.085,-0.0853,-0.0843,-0.0885,-0.0893,-0.0871,-0.0872,-0.0935,-0.0942,-0.0948,-0.1002,-0.0978,-0.0981,-0.0983,-0.11,-0.1102,-0.1104,0,0,0,0,0,0,-0.0784,-0.0785,-0.0804,-0.0806,-0.0812,-0.085,-0.0838,-0.0844,-0.0871,-0.0899,-0.0906,-0.0894,-0.0935,-0.0944,-0.0987,-0.1004,-0.0982,-0.0985,-0.1098,-0.1101,-0.1103,-0.1084,0,0,0,0,0,0,-0.0783,-0.0784,-0.0784,-0.0805,-0.0812,-0.0833,-0.0839,-0.0845,-0.0879,-0.0882,-0.0921,-0.0927,-0.0936,-0.0983,-0.099,-0.1008,-0.0987,-0.1096,-0.1099,-0.1102,-0.1083,-0.1085,-0.1088,0,0,0,0,0,-0.0782,-0.078,-0.0783,-0.0786,-0.0806,-0.0834,-0.084,-0.0867,-0.088,-0.0892,-0.0921,-0.0927,-0.1006,-0.0986,-0.0994,-0.1013,-0.1095,-0.1099,-0.1102,-0.1082,-0.1085,-0.1088,0,0,0,0,0,0,-0.0768,-0.0784,-0.0787,-0.0789,-0.0814,-0.084,-0.0856,-0.0878,-0.0909,-0.0919,-0.0941,-0.095,-0.0992,-0.1013,-0.099,-0.106,-0.1055,-0.106,-0.1037,-0.104,-0.1042,-0.1047,-0.0989,0,0,0,0,0,-0.0765,-0.0771,-0.079,-0.0795,-0.0802,-0.0832,-0.0852,-0.0874,-0.0903,-0.0918,-0.0949,-0.0984,-0.1009,-0.1033,-0.1058,-0.1097,-0.11,-0.112,-0.1122,-0.1124,-0.1137,-0.1143,-0.1146,-0.1115,-0.1115,-0.1115,0,0,-0.076,-0.0774,-0.0776,-0.0795,-0.0811,-0.083,-0.0844,-0.0877,-0.0907,-0.0922,-0.0972,-0.0992,-0.1021,-0.1058,-0.108,-0.108,-0.1134,-0.1128,-0.1129,-0.1141,-0.1147,-0.115,-0.1152,-0.1117,-0.1117,-0.1116,0,0,-0.0761,-0.0763,-0.0769,-0.0794,-0.0831,-0.0845,-0.0859,-0.0898,-0.0924,-0.0977,-0.0987,-0.1018,-0.1077,-0.1087,-0.1102,-0.114,-0.1141,-0.1159,-0.1179,-0.1185,-0.1187,-0.1189,-0.1181,-0.1182,-0.1166,-0.1165,-0.1165,0,-0.0751,-0.0767,-0.0779,-0.0801,-0.0828,-0.0852,-0.0875,-0.0901,-0.0958,-0.0974,-0.0999,-0.1068,-0.1089,-0.1115,-0.1132,-0.1143,-0.1146,-0.1156,-0.1185,-0.1187,-0.1189,-0.1181,-0.1182,-0.1165,-0.1165,-0.1165,-0.1165,0,-0.0755,-0.0785,-0.0793,-0.0821,-0.0847,-0.0876,-0.091,-0.0943,-0.0982,-0.1004,-0.1056,-0.1091,-0.1128,-0.1143,-0.1154,-0.1182,-0.1177,-0.1176,-0.1166,-0.119,-0.1181,-0.1183,-0.1164,-0.1164,-0.1165,-0.1165,0,0,-0.0698,-0.0775,-0.0787,-0.081,-0.0868,-0.0881,-0.0929,-0.0961,-0.0979,-0.1044,-0.1075,-0.1127,-0.114,-0.116,-0.1175,-0.1196,-0.1205,-0.1203,-0.1203,-0.1177,-0.1213,-0.1113,-0.1106,-0.1206,-0.1207,-0.1208,-0.1194,0,-0.0699,-0.0747,-0.0793,-0.0841,-0.0862,-0.091,-0.0949,-0.0985,-0.1019,-0.105,-0.109,-0.1123,-0.1146,-0.1168,-0.119,-0.1201,-0.1213,-0.1209,-0.1212,-0.1212,-0.1105,-0.1106,-0.121,-0.1195,-0.1196,-0.1196,-0.1196,0,-0.0697,-0.0732,-0.0783,-0.0855,-0.0865,-0.0898,-0.0944,-0.098,-0.1021,-0.1056,-0.1092,-0.1116,-0.1155,-0.1177,-0.1211,-0.1208,-0.1218,-0.1229,-0.1228,-0.1146,-0.1116,-0.1175,-0.12,-0.1199,-0.1199,-0.1199,-0.1199,0,-0.0659,-0.0731,-0.0771,-0.0799,-0.0872,-0.0903,-0.0931,-0.0977,-0.0996,-0.1047,-0.1072,-0.1113,-0.1151,-0.1172,-0.1204,-0.1209,-0.1235,-0.1231,-0.1149,-0.1141,-0.1243,-0.1241,-0.1255,-0.1255,-0.1255,-0.1255,-0.1255,0,-0.0655,-0.069,-0.0756,-0.078,-0.0801,-0.0872,-0.0899,-0.0932,-0.0985,-0.099,-0.1062,-0.1087,-0.1159,-0.118,-0.1196,-0.117,-0.1221,-0.115,-0.1131,-0.1235,-0.1233,-0.1242,-0.1241,-0.1254,-0.1254,-0.1254,-0.1254,0,-0.0627,-0.0681,-0.0716,-0.0783,-0.079,-0.0805,-0.0858,-0.0867,-0.0944,-0.0958,-0.0979,-0.1066,-0.1093,-0.1136,-0.1172,-0.1149,-0.1139,-0.112,-0.1221,-0.1209,-0.1043,-0.1041,-0.1009,-0.1006,-0.1003,-0.1,-0.0998,0,-0.062,-0.0641,-0.0685,-0.0686,-0.0718,-0.0746,-0.0754,-0.0826,-0.0836,-0.0931,-0.0925,-0.0989,-0.1033,-0.1005,-0.1065,-0.1059,-0.1061,-0.1048,-0.1056,-0.1033,-0.1018,-0.1021,-0.1024,-0.0993,-0.0992,-0.0991,-0.0991,0,-0.0587,-0.0611,-0.063,-0.0627,-0.0633,-0.0629,-0.0652,-0.065,-0.0735,-0.0814,-0.0845,-0.0874,-0.0904,-0.0938,-0.0946,-0.0948,-0.1048,-0.1016,-0.1022,-0.1029,-0.1013,-0.1002,-0.1008,-0.098,-0.0982,-0.0983,-0.0983,0,-0.0544,-0.0541,-0.0561,-0.0549,-0.0546,-0.051,-0.0537,-0.0559,-0.0582,-0.0698,-0.0704,-0.0794,-0.0881,-0.0879,-0.0883,-0.0874,-0.0865,-0.0847,-0.0863,-0.0875,-0.084,-0.0799,-0.0679,0,0,0,0,0,-0.0486,-0.0471,-0.047,-0.045,-0.045,-0.0441,-0.0461,-0.0503,-0.0585,-0.057,-0.0638,-0.0663,-0.0698,-0.0754,-0.0716,-0.0808,-0.0855,-0.076,-0.0839,-0.0921,-0.0933,-0.0905,0,0,0,0,0,0,-0.0442,-0.0439,-0.0444,-0.037,-0.0341,-0.032,-0.0328,-0.0382,-0.0392,-0.0494,-0.0518,-0.0609,-0.0651,-0.0703,-0.07,-0.0712,-0.0743,-0.0817,-0.0815,-0.0914,-0.0925,-0.0935,-0.0911,0,0,0,0,0]},{"header":{"parameterUnit":"m.s-1","parameterCategory":2,"la1":30.2991,"la2":30.254,"lo1":-89.0895,"lo2":-89.0444,"dy":0.0017,"dx":0.0017,"nx":28,"ny":28,"refTime":"2025-02-03T03:00:00:Z","depth":"4","parameterNumber":3,"parameterNumberName":"V-component_of_CURRENTS"},"data":[0,0,0,0,0,0,0,0,0,0,0,0,0,0,0,0,0,0,0,0,0,0,0,0,0,0,0,0,0,0,0,0,0,0,0,0,0,0,0,0,0,0,0,0,0,0,0,0,0,0,0,0,0,0,0,0,0,0,-0.0619,-0.0618,0,-0.063,-0.0631,-0.0632,-0.0666,-0.0666,-0.0667,-0.0667,-0.068,-0.068,-0.068,0,0,0,0,0,0,0,0,0,0,0,0,0,-0.06,-0.0601,-0.0619,-0.0618,-0.0618,-0.063,-0.0631,-0.0632,-0.0666,-0.0666,-0.0667,-0.0667,-0.068,-0.068,-0.068,0,0,0,0,0,0,0,0,0,0,0,0,0,-0.0617,-0.0601,-0.0619,-0.0631,-0.0632,-0.063,-0.0631,-0.0632,-0.0666,-0.0666,-0.0667,-0.0667,-0.068,-0.068,-0.068,-0.068,0,0,-0.0682,-0.0682,0,0,0,0,0,0,0,0,-0.0616,-0.0618,-0.063,-0.063,-0.0631,-0.0641,-0.0629,-0.0646,-0.0666,-0.0661,-0.0667,-0.0667,-0.0662,-0.0664,-0.0676,-0.0681,-0.0681,-0.0682,-0.0682,-0.0682,-0.0682,0,0,0,0,0,0,0,-0.0615,-0.0618,-0.0631,-0.0629,-0.063,-0.0626,-0.063,-0.0633,-0.0666,-0.0661,-0.0662,-0.0652,-0.0663,-0.0676,-0.0676,-0.0681,-0.0682,-0.0682,-0.0682,-0.0682,-0.0732,-0.0733,0,0,0,0,0,0,-0.06,-0.0617,-0.063,-0.063,-0.0615,-0.0626,-0.063,-0.0643,-0.0666,-0.0668,-0.0652,-0.0653,-0.0675,-0.0676,-0.0677,-0.0711,-0.0682,-0.0682,-0.0683,-0.0731,-0.0732,-0.0733,0,0,0,0,0,0,-0.06,-0.0602,-0.063,-0.0616,-0.0619,-0.0626,-0.064,-0.0643,-0.066,-0.0657,-0.066,-0.0664,-0.0675,-0.0676,-0.0694,-0.0711,-0.0683,-0.0683,-0.073,-0.0731,-0.0733,-0.0758,0,0,0,0,0,0,-0.06,-0.0603,-0.0622,-0.0616,-0.0619,-0.0637,-0.0639,-0.0643,-0.0649,-0.0652,-0.0668,-0.067,-0.0675,-0.0693,-0.0694,-0.0711,-0.0683,-0.0728,-0.073,-0.0732,-0.0756,-0.0761,-0.0764,0,0,0,0,0,-0.06,-0.0617,-0.0624,-0.0625,-0.0641,-0.0636,-0.0639,-0.0647,-0.0649,-0.0663,-0.0676,-0.067,-0.0707,-0.0694,-0.0695,-0.0712,-0.0727,-0.073,-0.0732,-0.0754,-0.076,-0.0764,0,0,0,0,0,0,-0.0617,-0.0621,-0.0628,-0.0647,-0.0645,-0.0639,-0.0649,-0.0649,-0.0671,-0.0678,-0.0679,-0.0682,-0.0708,-0.0705,-0.0691,-0.0734,-0.0718,-0.072,-0.0734,-0.0739,-0.0743,-0.0724,-0.0684,0,0,0,0,0,-0.0628,-0.0646,-0.064,-0.0655,-0.0655,-0.0654,-0.0656,-0.0661,-0.0666,-0.0677,-0.0688,-0.0702,-0.0718,-0.0724,-0.074,-0.0755,-0.0712,-0.0769,-0.0773,-0.0776,-0.0763,-0.0714,-0.0712,-0.0741,-0.0741,-0.0741,0,0,-0.0638,-0.0639,-0.0651,-0.066,-0.0661,-0.0664,-0.0658,-0.0663,-0.067,-0.0673,-0.0701,-0.0718,-0.0727,-0.0755,-0.0765,-0.0753,-0.0746,-0.0779,-0.0782,-0.0766,-0.0716,-0.0713,-0.071,-0.0743,-0.0743,-0.0743,0,0,-0.064,-0.0668,-0.0675,-0.0679,-0.0676,-0.0678,-0.0677,-0.0682,-0.0695,-0.0714,-0.0726,-0.0746,-0.077,-0.078,-0.0786,-0.0818,-0.0774,-0.0834,-0.0833,-0.0787,-0.0783,-0.0779,-0.0716,-0.0706,-0.0831,-0.0832,-0.0832,0,-0.0652,-0.0664,-0.0674,-0.0675,-0.0678,-0.0682,-0.0685,-0.0697,-0.071,-0.0718,-0.0728,-0.0765,-0.0778,-0.0794,-0.0816,-0.0825,-0.0784,-0.0813,-0.0789,-0.0785,-0.078,-0.0716,-0.0705,-0.0833,-0.0833,-0.0833,-0.0833,0,-0.0654,-0.0669,-0.067,-0.0682,-0.0689,-0.0695,-0.0701,-0.0721,-0.0736,-0.0742,-0.0769,-0.0788,-0.0804,-0.0822,-0.083,-0.082,-0.0797,-0.0801,-0.0769,-0.0778,-0.0711,-0.0698,-0.0835,-0.0835,-0.0834,-0.0834,0,0,-0.0665,-0.0672,-0.0677,-0.0681,-0.0697,-0.0699,-0.0719,-0.0732,-0.074,-0.0766,-0.077,-0.081,-0.0816,-0.0822,-0.0836,-0.0805,-0.0748,-0.0793,-0.0789,-0.0716,-0.0626,-0.059,-0.0572,-0.0746,-0.0744,-0.0743,-0.0588,0,-0.0664,-0.0669,-0.0676,-0.0688,-0.0691,-0.0711,-0.0727,-0.0744,-0.0759,-0.0771,-0.0782,-0.0798,-0.0815,-0.0827,-0.0801,-0.0772,-0.0718,-0.0788,-0.064,-0.0634,-0.059,-0.0558,-0.0737,-0.0579,-0.0576,-0.0574,-0.0573,0,-0.0663,-0.0666,-0.0678,-0.0691,-0.0696,-0.0711,-0.074,-0.0754,-0.077,-0.0777,-0.0785,-0.0791,-0.0776,-0.0782,-0.0696,-0.074,-0.0677,-0.064,-0.0633,-0.0577,-0.0576,-0.0571,-0.055,-0.0552,-0.0553,-0.0555,-0.0556,0,-0.0657,-0.0667,-0.0679,-0.0687,-0.0706,-0.0723,-0.0741,-0.0763,-0.0772,-0.0777,-0.0775,-0.0759,-0.0744,-0.0679,-0.0618,-0.0649,-0.0495,-0.0525,-0.042,-0.0416,-0.0483,-0.0489,-0.0423,-0.0424,-0.0424,-0.0424,-0.0425,0,-0.0649,-0.0658,-0.0682,-0.0689,-0.0714,-0.0727,-0.075,-0.0765,-0.0774,-0.0776,-0.0777,-0.0757,-0.0714,-0.0639,-0.0584,-0.0455,-0.0457,-0.0395,-0.0369,-0.0499,-0.0509,-0.0473,-0.0481,-0.0418,-0.042,-0.0421,-0.0422,0,-0.0632,-0.0651,-0.0664,-0.0695,-0.0709,-0.073,-0.0759,-0.0767,-0.0774,-0.0771,-0.0769,-0.0732,-0.0631,-0.0561,-0.0437,-0.0396,-0.029,-0.0234,-0.0349,-0.0336,-0.0247,-0.0259,-0.0103,-0.01,-0.0098,-0.0096,-0.0095,0,-0.062,-0.0627,-0.0671,-0.0691,-0.0708,-0.0738,-0.0756,-0.0772,-0.077,-0.0752,-0.074,-0.065,-0.0615,-0.0396,-0.0336,-0.0184,-0.0176,-0.0113,-0.0209,-0.0221,-0.0212,-0.0227,-0.0241,-0.0091,-0.0091,-0.009,-0.0089,0,-0.0595,-0.0623,-0.0637,-0.0678,-0.0707,-0.0726,-0.0748,-0.0744,-0.0752,-0.0758,-0.0683,-0.0601,-0.0472,-0.036,-0.0223,-0.0134,-0.0164,-0.009,-0.0095,-0.0185,-0.0205,-0.0201,-0.0218,-0.0081,-0.0083,-0.0083,-0.0084,0,-0.0581,-0.0593,-0.0622,-0.0653,-0.069,-0.0702,-0.0719,-0.0701,-0.0696,-0.0681,-0.0648,-0.0545,-0.0492,-0.0328,-0.0216,-0.011,-0.0109,-0.0106,-0.0111,-0.0119,-0.0191,-0.0224,-0.0058,0,0,0,0,0,-0.0556,-0.0565,-0.0594,-0.0623,-0.0658,-0.0678,-0.0703,-0.0714,-0.0723,-0.0661,-0.0654,-0.0538,-0.0373,-0.0307,-0.0188,-0.0188,-0.0098,-0.0049,-0.0099,-0.0038,-0.0047,-0.0129,0,0,0,0,0,0,-0.0541,-0.0562,-0.0575,-0.0586,-0.0604,-0.063,-0.0649,-0.066,-0.0621,-0.0625,-0.0527,-0.051,-0.034,-0.0426,-0.0182,-0.0155,-0.0172,0.002,0.0022,-0.0033,-0.0041,-0.0048,-0.0136,0,0,0,0,0]}]]